AUA21M LOWW-EDDH

Flight info

Callsign AUA21M
Flight time N/A
Altitude 38000
Route LOWW/29 LANUX DCT LALUK DCT MILGU DCT SOGMA M748 BUMIL/N0359F240 M748 RARUP RARUP3D
Aircraft A20N/M-SDE2E3FGHIRWXY/LB1

Departure

Time N/A
Airport Vienna International Airport (LOWW)

Arrival

Time 2026-04-30 18:29
Airport Hamburg Helmut Schmidt Airport (EDDH)
Time Latitude Longitude Altitude Speed Heading
2026-04-30 17:39 50.47454 14.19090 38389 ft 427 kts 335°
2026-04-30 17:42 50.72973 13.95110 38422 ft 428 kts 335°
2026-04-30 17:43 50.85536 13.82446 38425 ft 431 kts 332°
2026-04-30 17:44 51.00380 13.66279 38435 ft 432 kts 332°
2026-04-30 17:47 51.22542 13.41820 38417 ft 430 kts 331°
2026-04-30 17:48 51.39588 13.22809 38422 ft 429 kts 331°
2026-04-30 17:50 51.59146 13.00841 38415 ft 426 kts 332°
2026-04-30 17:52 51.74106 12.85533 38415 ft 425 kts 333°
2026-04-30 17:53 51.86560 12.72583 38017 ft 427 kts 332°
2026-04-30 17:54 51.96577 12.62099 36877 ft 430 kts 332°
2026-04-30 17:55 52.06674 12.51477 35783 ft 434 kts 332°
2026-04-30 17:56 52.16830 12.40734 34790 ft 438 kts 332°
2026-04-30 17:57 52.24540 12.32541 34032 ft 443 kts 331°
2026-04-30 17:58 52.32257 12.24121 33211 ft 446 kts 329°
2026-04-30 17:59 52.42344 12.12165 31963 ft 448 kts 329°
2026-04-30 18:00 52.52448 12.00246 30756 ft 449 kts 328°
2026-04-30 18:00 52.60047 11.91245 30427 ft 448 kts 328°
2026-04-30 18:01 52.65121 11.85212 30425 ft 448 kts 328°
2026-04-30 18:02 52.80171 11.67208 29344 ft 440 kts 328°
2026-04-30 18:03 52.87539 11.58338 28059 ft 434 kts 328°
2026-04-30 18:04 52.94816 11.49538 26870 ft 427 kts 328°
2026-04-30 18:05 53.04289 11.38027 24947 ft 417 kts 328°
2026-04-30 18:06 53.13521 11.26780 22684 ft 405 kts 329°
2026-04-30 18:07 53.22533 11.16447 20218 ft 377 kts 330°
2026-04-30 18:08 53.28873 11.09117 18811 ft 366 kts 330°
2026-04-30 18:09 53.36795 10.99904 16815 ft 357 kts 330°
2026-04-30 18:10 53.44609 10.90680 15182 ft 320 kts 329°
2026-04-30 18:11 53.51753 10.82174 13714 ft 313 kts 329°
2026-04-30 18:11 53.57030 10.75949 12548 ft 307 kts 329°
2026-04-30 18:12 53.61310 10.68308 11529 ft 312 kts 286°
2026-04-30 18:13 53.62240 10.61142 11447 ft 314 kts 283°
2026-04-30 18:13 53.61003 10.51722 11236 ft 319 kts 244°
2026-04-30 18:14 53.58771 10.43847 10213 ft 317 kts 245°
2026-04-30 18:15 53.56173 10.33884 8918 ft 300 kts 246°
2026-04-30 18:15 53.53712 10.24251 7803 ft 297 kts 245°
2026-04-30 18:16 53.52353 10.18956 7454 ft 293 kts 245°
2026-04-30 18:16 53.50722 10.12625 7426 ft 295 kts 245°
2026-04-30 18:17 53.49920 10.09517 7406 ft 283 kts 245°
2026-04-30 18:17 53.49143 10.06507 7137 ft 279 kts 245°
2026-04-30 18:17 53.47593 10.00526 6292 ft 282 kts 245°
2026-04-30 18:18 53.46809 9.97497 5859 ft 282 kts 245°
2026-04-30 18:18 53.46034 9.94507 5489 ft 274 kts 245°
2026-04-30 18:18 53.45302 9.91656 5338 ft 257 kts 245°
2026-04-30 18:18 53.44616 9.88974 5209 ft 247 kts 245°
2026-04-30 18:19 53.43937 9.86324 5083 ft 249 kts 245°
2026-04-30 18:19 53.43255 9.83675 4994 ft 246 kts 245°
2026-04-30 18:19 53.42575 9.81031 4989 ft 247 kts 245°
2026-04-30 18:19 53.41887 9.78361 4992 ft 248 kts 245°
2026-04-30 18:20 53.41158 9.75755 4993 ft 245 kts 237°
2026-04-30 18:20 53.40241 9.73386 4985 ft 245 kts 234°
2026-04-30 18:20 53.39291 9.71015 4989 ft 245 kts 234°
2026-04-30 18:20 53.38487 9.68489 4992 ft 246 kts 255°
2026-04-30 18:21 53.38462 9.65617 4905 ft 249 kts 285°
2026-04-30 18:21 53.39208 9.63022 4568 ft 250 kts 303°
2026-04-30 18:21 53.40142 9.60588 4140 ft 249 kts 304°
2026-04-30 18:21 53.41226 9.58429 3862 ft 236 kts 327°
2026-04-30 18:22 53.42717 9.57689 3613 ft 220 kts
2026-04-30 18:22 53.44936 9.60595 3110 ft 204 kts 56°
2026-04-30 18:22 53.45750 9.62454 2994 ft 198 kts 56°
2026-04-30 18:23 53.46589 9.64364 2992 ft 203 kts 55°
2026-04-30 18:23 53.47430 9.66255 2997 ft 202 kts 55°
2026-04-30 18:23 53.48279 9.68140 3002 ft 202 kts 54°
2026-04-30 18:23 53.49136 9.70021 2999 ft 201 kts 54°
2026-04-30 18:24 53.50820 9.73658 2995 ft 187 kts 54°
2026-04-30 18:24 53.51607 9.75336 2990 ft 184 kts 54°
2026-04-30 18:24 53.52400 9.77020 2975 ft 182 kts 53°
2026-04-30 18:25 53.53187 9.78678 2796 ft 184 kts 53°
2026-04-30 18:25 53.54786 9.82011 2321 ft 175 kts 53°
2026-04-30 18:25 53.55560 9.83608 2063 ft 179 kts 53°
2026-04-30 18:26 53.57072 9.86740 1570 ft 159 kts 52°
2026-04-30 18:26 53.57737 9.88086 1363 ft 144 kts 53°
2026-04-30 18:26 53.58386 9.89404 1181 ft 146 kts 53°
2026-04-30 18:27 53.59656 9.92014 873 ft 145 kts 52°
2026-04-30 18:27 53.60285 9.93279 629 ft 134 kts 50°
2026-04-30 18:28 53.61405 9.95522 248 ft 123 kts 51°
2026-04-30 18:28 53.61951 9.96627 104 ft 122 kts 51°
2026-04-30 18:28 53.62848 9.98442 44 ft 55 kts 50°
2026-04-30 18:29 53.63034 9.98824 43 ft 39 kts 54°
2026-04-30 18:29 53.63086 9.99241 44 ft 4 kts 96°
2026-04-30 18:30 53.63085 9.99261 44 ft 0 kts 96°
2026-04-30 18:31 53.63081 9.99315 44 ft 8 kts 96°
2026-04-30 18:32 53.63086 9.99364 41 ft 0 kts 67°
2026-04-30 18:33 53.63151 9.99526 45 ft 22 kts 52°
2026-04-30 18:33 53.63219 9.99671 44 ft 6 kts 49°
2026-04-30 18:34 53.63228 9.99687 44 ft 3 kts 47°
2026-04-30 18:34 53.63195 9.99786 44 ft 9 kts 152°
2026-04-30 18:34 53.63157 9.99818 44 ft 11 kts 153°
2026-04-30 18:35 53.63076 9.99889 44 ft 15 kts 152°
2026-04-30 18:35 53.62981 9.99967 45 ft 13 kts 154°
2026-04-30 18:35 53.62950 10.00026 45 ft 7 kts 96°
2026-04-30 18:36 53.62904 10.00180 45 ft 4 kts 124°
2026-04-30 18:36 53.62897 10.00201 45 ft 0 kts 122°
2026-04-30 18:36 53.62893 10.00211 45 ft 1 kts 122°
2026-04-30 18:37 53.62892 10.00213 45 ft 0 kts 122°